Wind_Speed
124 110 112 107 104 103 102 93 92 75 71 63 68 66 67 68 63 59 64 65 62 58 56 60 61 62 66 71 68 62 55 54 55 66 68 81 78 75 76 72 69 71 69 70
125 120 116 115 108 111 108 101 99 85 81 61 72 72 67 68 67 65 63 69 69 65 57 61 63 63 71 74 77 75 70 67 74 74 73 74 73 75 79 78 77 75 75 79
135 130 123 128 115 113 112 110 101 94 73 74 84 78 75 76 73 70 71 71 70 69 65 64 63 68 72 76 76 80 77 73 71 72 76 72 73 77 79 82 85 84 86 84
142 143 139 129 126 112 112 112 110 101 84 79 80 84 83 81 75 74 75 74 73 73 75 69 71 73 75 76 78 83 75 74 69 70 73 76 76 77 78 81 84 89 89 95
148 149 143 128 119 118 120 111 103 101 89 87 90 97 89 76 78 78 78 77 78 79 80 75 80 75 76 77 86 84 75 70 74 80 77 80 80 85 87 84 87 90 90 86
157 154 152 130 129 121 123 122 110 105 99 98 97 99 78 80 80 81 82 84 81 80 71 84 85 80 82 89 89 77 75 82 77 81 82 88 79 87 83 88 94 83 82 84
153 158 151 126 132 135 135 123 103 106 94 101 103 87 74 89 90 90 92 92 91 91 91 90 89 91 87 86 86 86 80 88 84 88 85 90 86 87 88 86 83 87 86 88
120 136 136 135 138 141 136 130 117 110 103 100 104 104 96 94 94 97 98 101 94 94 90 91 89 81 82 85 89 91 90 87 91 92 93 91 95 97 94 82 88 91 88 98
109 115 104 132 147 147 141 138 127 118 115 110 105 103 105 107 106 105 107 106 96 84 90 93 89 90 95 102 103 96 98 97 90 100 106 98 103 102 95 89 89 88 93 110
101 96 89 112 138 149 147 141 130 130 128 124 115 114 116 113 111 110 109 104 103 107 108 92 90 92 98 99 102 101 104 105 104 113 108 105 101 96 88 91 88 105 106 106
88 82 86 97 118 132 138 142 137 132 133 131 128 125 120 119 118 114 111 111 107 104 95 95 99 103 105 109 102 103 107 110 104 103 101 104 93 91 89 92 108 102 103 113
72 79 77 86 103 109 121 133 137 136 129 125 128 128 126 120 117 115 116 115 115 116 107 103 103 105 107 103 106 105 103 100 102 104 101 91 89 91 98 102 104 109 114 116
64 68 70 82 89 93 98 106 116 124 129 128 127 122 117 115 119 126 123 114 111 107 104 103 108 109 108 109 108 94 95 93 93 92 87 93 96 97 101 106 109 112 111 119
60 61 62 72 81 89 84 87 91 94 100 107 106 97 94 82 87 93 95 96 97 94 94 94 99 104 81 76 78 79 82 85 90 96 101 102 101 102 108 110 111 115 118 117
54 58 63 70 77 80 79 80 77 71 67 70 69 66 64 64 62 66 72 75 78 79 81 79 74 73 76 76 80 91 90 95 97 96 99 101 104 106 103 105 104 103 99 105
50 53 61 66 74 78 81 77 76 83 91 84 81 75 77 77 69 74 80 80 79 78 80 77 73 78 82 88 93 93 93 92 92 96 101 103 101 104 109 108 99 95 95 97
46 51 58 63 69 73 79 82 77 82 81 84 82 74 77 79 80 82 82 83 81 85 82 79 81 82 82 90 98 99 97 98 97 95 98 100 109 105 104 106 99 92 95 96
49 52 58 63 68 76 91 88 84 81 88 85 77 77 78 81 81 80 82 83 85 86 91 90 93 97 99 93 92 96 95 95 98 101 106 108 108 110 112 94 93 95 98 97
47 50 52 60 66 86 92 91 90 95 93 88 86 82 82 85 87 85 89 89 93 95 93 98 97 91 90 89 94 96 104 105 111 104 109 110 109 114 110 107 95 95 96 94
44 49 51 58 69 92 100 100 101 98 98 102 97 88 89 87 89 86 89 88 83 85 83 89 89 88 94 101 107 103 105 104 105 107 114 112 115 115 116 102 95 99 93 89
45 47 51 57 68 84 101 107 107 109 109 107 102 100 99 85 85 86 84 89 94 90 90 92 99 102 93 100 103 103 106 104 112 111 116 120 119 119 98 100 96 93 89 83
44 47 52 62 74 88 97 109 112 112 111 110 108 108 102 104 103 91 87 85 85 89 94 92 87 93 97 98 99 108 109 110 116 118 115 119 108 99 98 96 92 89 84 79
39 47 53 65 70 86 102 107 110 111 104 104 102 103 110 95 101 107 108 107 102 102 102 104 102 99 103 110 113 115 121 120 116 118 105 97 95 94 93 89 86 80 78 75
43 50 55 63 71 78 87 93 101 101 101 101 107 108 110 114 112 115 114 113 113 111 109 109 112 115 117 119 119 117 120 117 102 105 95 94 93 94 90 86 78 76 74 72
43 49 52 58 64 73 82 91 96 99 102 103 107 113 113 108 108 110 114 113 114 116 116 117 119 119 119 117 115 115 109 104 104 92 92 91 92 85 79 77 75 74 71 65
40 46 52 59 67 70 74 85 97 98 103 106 108 115 116 115 110 106 105 109 109 114 115 118 119 117 112 113 112 113 108 95 90 90 91 88 81 77 76 75 73 70 64 59
40 45 51 57 63 60 78 92 93 92 98 102 105 108 111 113 113 110 109 111 111 109 107 108 107 102 97 99 105 99 87 88 92 88 81 80 76 76 75 74 69 62 58 55
Wind_Direction
238 237 235 233 232 238 238 240 239 235 235 235 228 233 235 237 238 246 253 256 258 261 264 265 266 273 275 277 279 288 286 280 283 285 286 288 284 286 290 285 283 284 289 291
237 233 233 234 231 234 236 236 241 235 233 234 242 233 235 242 245 249 251 259 259 261 263 265 266 270 274 277 279 283 290 282 288 292 291 285 284 286 289 286 285 288 288 286
236 236 234 236 232 232 235 232 236 237 235 238 237 239 239 242 244 249 254 260 265 267 264 265 269 273 277 278 279 283 286 289 285 285 285 284 284 287 287 287 287 285 288 291
235 237 238 237 234 232 236 235 234 235 234 239 242 243 239 241 243 247 253 258 259 261 265 264 269 276 276 274 275 283 284 285 281 285 281 279 283 287 285 289 285 285 287 290
237 238 240 241 242 242 243 239 237 237 234 237 238 243 240 243 248 250 253 257 260 264 266 265 271 272 272 267 276 280 283 282 281 285 278 285 284 286 289 287 290 289 289 290
237 240 242 241 244 245 245 244 234 235 232 234 240 244 241 247 249 249 251 254 258 261 251 260 267 269 267 270 276 276 275 280 275 278 285 287 289 290 291 289 292 298 295 290
234 238 238 235 239 242 244 246 238 239 238 240 241 242 242 245 248 251 252 255 259 261 263 261 269 271 272 270 270 275 277 277 279 285 285 287 286 287 290 291 293 295 295 293
234 236 236 233 237 239 244 245 243 238 237 235 240 242 241 245 250 252 254 255 257 259 264 265 270 266 264 262 264 272 276 273 277 283 282 286 287 292 291 289 292 295 293 297
232 233 229 228 233 237 238 241 240 244 245 244 243 243 245 244 246 248 250 253 258 254 260 266 266 262 264 268 272 274 274 276 276 281 285 284 285 289 288 290 294 292 291 298
234 232 228 227 230 234 237 239 239 242 242 244 244 244 245 249 250 251 254 258 257 258 264 265 264 261 261 265 273 271 274 275 276 281 285 287 288 290 289 295 288 296 297 295
235 232 230 224 229 235 237 238 239 239 242 244 243 242 245 247 251 253 255 254 255 257 255 255 255 258 261 267 271 273 278 278 279 282 281 287 288 289 288 286 296 295 293 294
231 230 229 225 227 230 231 235 238 239 241 244 246 247 245 247 247 248 251 250 253 257 257 260 259 262 262 267 270 273 278 277 279 280 283 285 288 287 289 293 290 289 293 297
228 228 223 222 226 228 229 232 235 238 241 242 246 250 253 256 250 244 246 249 253 255 257 257 260 261 263 267 271 269 273 277 280 281 280 283 285 284 286 286 288 290 292 301
224 224 221 221 220 224 225 227 228 230 232 236 244 245 246 248 250 255 255 252 249 251 254 262 264 267 263 266 268 273 272 268 271 273 280 283 287 284 285 287 291 289 292 298
218 218 216 216 216 218 221 225 225 214 212 219 224 220 230 239 240 247 243 243 247 250 253 257 254 248 260 263 265 276 273 272 275 277 278 281 282 284 285 288 300 302 296 296
217 213 215 215 212 212 214 217 214 218 214 212 229 230 230 231 236 236 243 248 248 252 250 246 253 259 262 262 271 271 269 271 273 276 278 282 282 288 293 301 306 300 298 298
222 217 214 214 211 209 209 212 208 206 214 213 212 219 226 231 231 234 241 242 246 248 246 256 256 263 266 267 272 268 269 271 276 280 276 278 283 297 305 307 298 298 302 300
227 220 217 214 210 204 204 211 214 218 209 212 222 224 226 229 231 232 237 242 247 246 246 251 257 261 267 266 265 266 266 272 273 277 282 289 295 302 306 302 303 302 304 303
224 224 217 216 210 202 203 209 213 213 212 213 215 221 231 237 237 238 238 241 241 245 249 255 260 260 264 257 262 263 269 275 280 286 288 294 300 304 305 304 300 303 302 304
219 219 215 213 210 203 204 207 212 213 215 215 217 223 229 236 243 249 248 252 255 255 252 257 263 258 261 267 272 272 278 281 283 285 294 296 302 303 302 298 301 302 303 305
214 210 208 209 211 211 207 211 216 218 221 224 227 234 239 238 239 245 248 252 256 257 255 253 258 264 267 269 271 276 280 282 287 290 292 294 298 296 296 297 300 302 302 302
216 209 202 200 205 211 212 213 219 222 225 229 230 235 236 237 234 239 245 247 249 252 257 256 253 260 264 269 273 276 278 281 284 288 291 295 291 290 295 297 300 301 300 299
216 209 207 209 207 207 211 215 219 223 224 224 224 226 228 238 240 242 242 247 252 251 251 254 259 263 267 268 271 277 277 282 286 286 291 289 288 292 295 297 298 299 298 301
210 211 208 210 212 213 211 213 215 217 219 218 219 223 232 235 238 239 242 245 248 252 253 255 259 261 266 270 271 273 276 283 288 290 285 286 292 297 297 297 296 297 299 301
212 216 214 213 218 216 215 216 215 216 219 219 225 227 229 236 240 242 244 247 250 251 254 259 263 265 268 272 275 279 285 284 289 284 290 293 295 293 295 295 296 297 298 297
217 218 221 216 215 218 224 222 222 223 222 225 229 231 233 238 242 245 247 249 252 254 257 260 262 266 271 275 279 282 284 283 285 291 293 292 294 294 294 293 294 295 295 295
219 222 220 223 228 225 216 223 228 228 228 229 231 236 236 239 243 247 249 251 253 256 259 263 266 270 273 277 280 282 282 287 289 289 291 292 291 291 291 291 292 291 292 292
Height
10357 10388 10382 10389 10410 10414 10417 10446 10451 10496 10501 10521 10522 10527 10532 10533 10541 10545 10543 10546 10550 10555 10559 10561 10563 10565 10565 10565 10567 10567 10569 10569 10568 10568 10565 10561 10557 10555 10552 10548 10543 10539 10535 10531
10318 10347 10353 10356 10378 10383 10395 10419 10428 10467 10481 10515 10505 10511 10520 10522 10528 10535 10536 10529 10533 10538 10542 10545 10546 10547 10547 10548 10549 10549 10550 10551 10549 10545 10543 10540 10538 10538 10534 10530 10525 10521 10517 10512
10287 10308 10320 10321 10351 10363 10374 10395 10412 10434 10485 10490 10476 10492 10500 10500 10509 10518 10522 10521 10522 10522 10524 10527 10528 10530 10530 10531 10530 10532 10533 10533 10531 10528 10525 10522 10520 10519 10515 10511 10508 10503 10498 10492
10262 10267 10276 10300 10325 10349 10352 10380 10391 10413 10457 10474 10471 10471 10478 10485 10500 10503 10502 10505 10505 10506 10507 10508 10512 10513 10513 10515 10514 10514 10515 10515 10513 10510 10508 10506 10504 10501 10497 10493 10488 10483 10478 10472
10231 10239 10256 10295 10325 10336 10342 10368 10395 10408 10435 10440 10442 10433 10451 10481 10483 10484 10483 10482 10485 10489 10490 10493 10494 10495 10497 10497 10497 10499 10497 10497 10496 10494 10491 10491 10488 10483 10478 10473 10468 10464 10457 10450
10203 10211 10220 10299 10297 10316 10316 10312 10371 10375 10402 10411 10415 10409 10460 10457 10459 10458 10457 10457 10462 10468 10472 10474 10477 10478 10481 10480 10481 10481 10481 10481 10478 10476 10474 10472 10469 10464 10459 10453 10450 10443 10436 10431
10176 10175 10202 10288 10277 10272 10266 10312 10359 10360 10384 10391 10386 10412 10442 10417 10424 10428 10431 10436 10446 10454 10457 10457 10459 10460 10462 10462 10463 10463 10465 10463 10460 10459 10457 10455 10448 10442 10438 10434 10429 10423 10416 10410
10151 10151 10185 10261 10243 10237 10261 10287 10313 10332 10354 10360 10358 10373 10393 10397 10400 10402 10406 10410 10427 10432 10434 10438 10440 10441 10442 10441 10440 10446 10444 10443 10442 10440 10438 10434 10428 10422 10416 10413 10408 10400 10393 10386
10105 10123 10185 10202 10205 10214 10231 10254 10277 10300 10320 10336 10345 10352 10359 10365 10372 10380 10382 10391 10408 10412 10414 10419 10422 10422 10423 10421 10421 10424 10423 10422 10418 10418 10414 10410 10407 10401 10396 10391 10385 10379 10372 10366
10085 10124 10166 10182 10179 10184 10202 10225 10252 10268 10285 10301 10318 10330 10330 10337 10357 10366 10368 10380 10391 10393 10398 10401 10404 10403 10399 10398 10403 10404 10400 10398 10398 10395 10391 10389 10387 10381 10374 10371 10365 10359 10350 10340
10078 10112 10128 10153 10158 10167 10180 10200 10223 10240 10255 10267 10282 10297 10315 10325 10336 10346 10353 10358 10367 10374 10379 10382 10383 10383 10381 10380 10383 10379 10376 10376 10375 10373 10370 10368 10366 10361 10357 10350 10344 10336 10327 10316
10075 10081 10099 10123 10126 10136 10156 10176 10200 10217 10233 10243 10253 10268 10283 10298 10309 10323 10327 10333 10341 10350 10354 10359 10362 10363 10360 10363 10359 10358 10360 10355 10353 10350 10348 10347 10344 10340 10336 10331 10323 10313 10305 10294
10057 10064 10084 10090 10105 10122 10141 10159 10179 10198 10211 10222 10232 10247 10258 10267 10284 10296 10306 10310 10315 10321 10328 10331 10334 10340 10342 10345 10344 10339 10339 10336 10333 10328 10329 10327 10322 10320 10318 10308 10300 10290 10280 10268
10038 10051 10069 10075 10090 10099 10123 10140 10159 10175 10188 10199 10214 10229 10237 10250 10261 10271 10280 10287 10295 10298 10303 10308 10313 10319 10319 10320 10321 10322 10320 10315 10314 10313 10311 10305 10304 10302 10296 10290 10279 10267 10258 10244
10028 10038 10047 10054 10071 10091 10108 10124 10143 10162 10179 10190 10198 10208 10222 10235 10245 10253 10260 10267 10274 10279 10286 10293 10296 10300 10302 10304 10304 10304 10300 10297 10296 10294 10290 10287 10282 10279 10273 10267 10258 10244 10229 10218
10019 10033 10038 10050 10057 10075 10093 10110 10129 10142 10152 10171 10182 10197 10209 10218 10228 10236 10241 10249 10257 10264 10269 10274 10277 10278 10281 10285 10287 10280 10277 10278 10277 10275 10272 10266 10262 10259 10254 10243 10231 10218 10206 10193
10008 10018 10028 10042 10051 10064 10080 10098 10114 10127 10142 10153 10165 10180 10190 10202 10212 10220 10226 10235 10239 10244 10250 10252 10259 10261 10263 10262 10260 10259 10259 10258 10258 10255 10250 10246 10242 10234 10226 10216 10205 10192 10181 10171
9992 10003 10015 10023 10035 10057 10076 10089 10105 10117 10129 10140 10151 10162 10173 10183 10193 10203 10209 10216 10222 10227 10233 10237 10237 10241 10243 10241 10239 10239 10239 10240 10236 10233 10232 10225 10216 10209 10199 10190 10180 10171 10159 10148
9982 9991 10007 10018 10031 10043 10062 10079 10093 10104 10114 10125 10137 10146 10155 10165 10174 10182 10189 10196 10200 10204 10209 10214 10218 10218 10220 10215 10219 10220 10220 10215 10215 10208 10202 10199 10190 10185 10176 10169 10159 10147 10135 10125
9970 9980 9996 10010 10022 10030 10046 10059 10074 10090 10101 10111 10119 10129 10139 10148 10155 10162 10169 10173 10180 10185 10190 10191 10193 10192 10192 10196 10197 10196 10198 10193 10190 10183 10180 10174 10171 10164 10156 10145 10135 10124 10114 10105
9959 9970 9985 9999 10011 10020 10034 10046 10059 10073 10083 10093 10104 10112 10122 10132 10140 10144 10149 10154 10161 10165 10167 10170 10173 10174 10173 10174 10175 10175 10173 10170 10169 10162 10159 10157 10153 10145 10134 10123 10112 10103 10094 10085
9954 9962 9975 9986 9996 10007 10021 10036 10047 10055 10066 10077 10090 10099 10104 10109 10120 10129 10133 10136 10139 10139 10146 10151 10154 10155 10156 10157 10155 10154 10153 10151 10148 10144 10143 10140 10127 10120 10111 10099 10091 10081 10075 10067
9950 9956 9964 9973 9984 9995 10006 10019 10028 10037 10051 10060 10068 10078 10085 10092 10100 10109 10113 10117 10122 10125 10129 10133 10137 10137 10139 10137 10136 10136 10133 10132 10130 10130 10123 10115 10104 10094 10086 10078 10070 10063 10056 10048
9940 9945 9953 9962 9972 9981 9991 10005 10015 10024 10031 10041 10046 10057 10061 10072 10079 10083 10088 10097 10101 10106 10110 10112 10113 10115 10118 10119 10116 10113 10116 10113 10111 10104 10098 10089 10079 10070 10063 10058 10050 10043 10036 10029
9935 9937 9947 9958 9966 9975 9986 9995 10003 10008 10018 10025 10030 10038 10045 10049 10056 10064 10071 10077 10082 10086 10089 10091 10091 10092 10093 10094 10095 10095 10094 10092 10088 10078 10071 10064 10057 10049 10043 10037 10031 10025 10019 10012
9928 9933 9938 9944 9951 9961 9970 9976 9984 9992 10002 10006 10011 10019 10029 10033 10038 10045 10052 10058 10064 10068 10069 10069 10069 10070 10071 10072 10074 10076 10071 10071 10064 10055 10047 10043 10036 10029 10024 10019 10013 10008 10002 9996
9921 9924 9930 9934 9938 9949 9956 9960 9965 9974 9983 9990 9996 9997 10010 10016 10017 10022 10028 10034 10037 10041 10046 10048 10048 10050 10051 10051 10053 10054 10047 10041 10036 10032 10025 10020 10016 10011 10006 10001 9996 9991 9986 9981